Change the Weather History Date:

Sunday, November 16, 2014

  Actual Average Record
Temperature  
Mean Temperature 78 °F -  
Max Temperature 82 °F 82 °F 89 °F (1951)
Min Temperature 75 °F 64 °F 48 °F (1969)
Cooling Degree Days 14    
Growing Degree Days 28 (Base 50)    
Moisture  
Dew Point 67 °F    
Average Humidity 68    
Maximum Humidity 77    
Minimum Humidity 60    
Precipitation  
Precipitation 0.00 in - - ()
Sea Level Pressure  
Sea Level Pressure 30.12 in    
Wind  
Wind Speed 12 mph (ESE)    
Max Wind Speed 15 mph    
Max Gust Speed 20 mph    
Visibility 10 miles    
Events      
Averages and records for this station are not official NWS values.
T = Trace of Precipitation, MM = Missing Value Source: NWS Daily Summary

Daily Weather History Graph

Daily Weather History Graph

Search for Another Location

Airport or City:

Trip Planner

Search our weather history database for the weather conditions in past years. The results will help you decide how hot, cold, wet, or windy it might be!

Date:

Astronomy

Nov. 16, 2014 Rise Set
Actual Time 6:39 AM EST 5:30 PM EST
Civil Twilight 6:15 AM EST 5:54 PM EST
Nautical Twilight 5:47 AM EST 6:22 PM EST
Astronomical Twilight 5:19 AM EST 6:50 PM EST
Moon 1:18 AM EST (11/16) 1:52 PM EST (11/16)
Length of Visible Light 11h 39m
Length of Day
10h 50m
Waning Crescent, 31% of the Moon is Illuminated
Nov 16
Waning Crescent
Nov 22
New
Nov 29
First Quarter
Dec 6
Full
Dec 14
Last Quarter

Hourly Weather History & Observations

Time (EST) Temp. Heat Index Dew Point Humidity Pressure Visibility Wind Dir Wind Speed Gust Speed Precip Events Conditions
12:53 AM 75.0 °F - 64.0 °F 69% 30.16 in 10.0 mi East 12.7 mph - N/A   Partly Cloudy
1:53 AM 75.0 °F - 64.0 °F 69% 30.14 in 10.0 mi East 11.5 mph - N/A   Clear
2:53 AM 75.0 °F - 64.0 °F 69% 30.14 in 10.0 mi East 12.7 mph - N/A   Mostly Cloudy
3:53 AM 75.9 °F - 64.9 °F 69% 30.13 in 10.0 mi East 12.7 mph - N/A   Scattered Clouds
4:53 AM 75.9 °F - 66.0 °F 71% 30.14 in 10.0 mi East 13.8 mph - N/A   Mostly Cloudy
5:53 AM 75.9 °F - 64.0 °F 67% 30.14 in 10.0 mi ESE 11.5 mph - N/A   Partly Cloudy
6:53 AM 77.0 °F - 64.9 °F 66% 30.16 in 10.0 mi ESE 11.5 mph 19.6 mph N/A   Scattered Clouds
7:53 AM 79.0 °F - 64.9 °F 62% 30.17 in 10.0 mi ESE 12.7 mph - N/A   Scattered Clouds
8:53 AM 80.1 °F 82.1 °F 66.0 °F 62% 30.19 in 10.0 mi ESE 12.7 mph - N/A   Scattered Clouds
9:53 AM 82.0 °F 84.9 °F 68.0 °F 62% 30.19 in 10.0 mi ESE 13.8 mph - N/A   Clear
10:53 AM 82.0 °F 84.5 °F 66.9 °F 60% 30.18 in 10.0 mi SE 15.0 mph - N/A   Scattered Clouds
11:53 AM 82.9 °F 85.8 °F 68.0 °F 60% 30.15 in 10.0 mi SE 13.8 mph - N/A   Clear
12:53 PM 82.9 °F 86.5 °F 69.1 °F 63% 30.11 in 10.0 mi SE 13.8 mph - N/A   Scattered Clouds
1:53 PM 82.0 °F 84.9 °F 68.0 °F 62% 30.09 in 10.0 mi ESE 9.2 mph - N/A   Scattered Clouds
2:53 PM 82.0 °F 84.9 °F 68.0 °F 62% 30.08 in 10.0 mi East 11.5 mph - N/A   Scattered Clouds
3:53 PM 81.0 °F 83.8 °F 68.0 °F 65% 30.08 in 10.0 mi SE 12.7 mph - N/A   Scattered Clouds
4:53 PM 80.1 °F 82.7 °F 68.0 °F 67% 30.09 in 10.0 mi ESE 9.2 mph - N/A   Scattered Clouds
5:53 PM 78.1 °F - 68.0 °F 71% 30.09 in 10.0 mi ESE 8.1 mph - N/A   Partly Cloudy
6:53 PM 77.0 °F - 68.0 °F 74% 30.10 in 10.0 mi East 6.9 mph - N/A   Clear
7:53 PM 78.1 °F - 69.1 °F 74% 30.10 in 10.0 mi ESE 8.1 mph - N/A   Partly Cloudy
8:53 PM 78.1 °F - 69.1 °F 74% 30.10 in 10.0 mi ESE 9.2 mph - N/A   Mostly Cloudy
9:53 PM 79.0 °F - 71.1 °F 77% 30.09 in 10.0 mi ESE 12.7 mph - N/A   Scattered Clouds
10:53 PM 79.0 °F - 71.1 °F 77% 30.08 in 10.0 mi ESE 15.0 mph - N/A   Scattered Clouds
11:53 PM 79.0 °F - 71.1 °F 77% 30.06 in 10.0 mi SE 15.0 mph - N/A   Partly Cloudy